Tracking 23758 objects as of 28-Oct-2021
HD Live streaming from Space Station
objects crossing your sky now

ASTROCAST-01

Track ASTROCAST-01 now!
10-day predictions


NORAD ID: 43798
Int'l Code: 2018-099AS
Perigee: 577.4 km
Apogee: 593.1 km
Inclination: 97.7 °
Period: 96.2 minutes
Semi major axis: 6956 km
RCS: Unknown
Launch date: December 3, 2018
Source: (SWTZ)
Launch site: AIR FORCE WESTERN TEST RANGE (AFWTR)
aabbcc
Your satellite tracking list
Your tracking list is empty




NASA's NSSDC Master Catalog

Two Line Element Set (TLE):
1 43798U 18099AS  21300.22980675  .00001025  00000-0  95510-4 0  9995
2 43798  97.6543   8.9150 0011246 318.7257  41.3113 14.96375791158220
Source of the keplerian elements: AFSPC